Location: Ailly
(50.0793°N, 1.9944°E)
Time: 20:01:11
(UTC+00:00)

Cosmos 220 Rocket - Pass Details

Date: 15 January 2026
Orbit: 540 x 575 km, 74.0° (Epoch: 15 February)

Event Time Altitude Azimuth Distance (km) Brightness Sun altitude
Exits shadow 06:45:39 - 338° (NNW) 2,508 6.8 -9.3°
Reaches altitude 10° 06:47:10 10° 340° (NNW) 1,893 6.2 -9.1°
Maximum altitude 06:51:23 68° 65° (ENE) 619 4.2 -8.4°
Drops below altitude 10° 06:55:31 10° 148° (SSE) 1,863 7.5 -7.8°
Sets 06:57:42 0° 151° (SSE) 2,749 8.3 -7.5°
